sat.trackr.live / text

‹ back to catalog

FLOCK 4H-14

NORAD 66717 · 2025-276BD

PAYLOAD ACTIVE UNKNOWN

§ Identity

Operator
Country
US
Launch date
2025-11-28
Launch site
AFWTR
Launch vehicle
Mass (kg)
RCS (m²)

Purposes: earth_obs

External: N2YO · Heavens-Above · Gunter

§ Orbital elements

Epoch: 2026-05-24T15:27:48.235392Z

Period
94.69 min
Inclination
97.4209°
Eccentricity
0.0001987
Mean motion
15.20702790 rev/d
Perigee alt
502.4 km
Apogee alt
505.1 km
Semi-major
6,881.9 km
B*
2.3255e-4
RAAN
218.8722°
Arg perigee
72.4948°
Mean anomaly
287.6505°
Rev number
2,611

§ Raw data

FLOCK 4H-141 66717U 25276BD  26144.64430828  .00005044  00000+0  23255-3 0  99932 66717  97.4209 218.8722 0001987  72.4948 287.6505 15.20702790 26115

JSON: /api/v1/satellites/66717 · /tle

For live sub-satellite position, see the globe view (requires WebGL).

§ Visibility from observer

Set your observer location to see the next 7 days of passes ≥ 10°. The values pass through the URL so the page stays shareable.

No JS? Fill the form by hand. The geolocation button needs JavaScript.